Preview of NWS' New Version of Forecast
This preview is not operational and should not be used for support decisions.

Regional Weather Roundup (RWR)

Issued by National Weather Service (NWS)

                            
000
ASUS46 KSEW 150310
RWRWA 

WASHINGTON REGIONAL WEATHER ROUNDUP
NATIONAL WEATHER SERVICE SEATTLE WA
800 PM PDT SAT SEP 14 2019

NOTE:"FAIR" INDICATES FEW OR NO CLOUDS BELOW 12,000 FEET WITH NO 
SIGNIFICANT WEATHER AND/OR OBSTRUCTIONS TO VISIBILITY.

WAZ507-509-555>559-150400-
SEATTLE, TACOMA, EVERETT, AND VICINITY
  
CITY           SKY/WX    TMP DP  RH WIND       PRES   REMARKS
EVERETT        CLOUDY    63  53  70 S14       29.85S                  
BOEING FIELD   CLOUDY    66  53  63 S10       29.87S                  
RENTON         CLOUDY    66  55  67 S6        29.86F                  
SEATAC AIRPORT CLOUDY    65  53  65 S10       29.87F                  
JBLM-MCCHORD   CLOUDY    62  60  93 SE5       29.86F                  
PUYALLUP       CLOUDY    63  59  88 CALM      29.88S                  
BREMERTON      LGT RAIN  60  57  89 S8        29.86F                  
JBLM-FT LEWIS  CLOUDY    62  62  99 SE8       29.86F                  
TACOMA NARROWS CLOUDY    61  54  77 S7        29.87S                  
$$
 
WAZ001-503-506-510-514-515-150400-
NORTH INTERIOR
  
CITY           SKY/WX    TMP DP  RH WIND       PRES   REMARKS
BELLINGHAM     LGT RAIN  66  52  60 S16G29    29.76F                  
FRIDAY HARBOR  CLOUDY    59  54  83 S7        29.79R                  
EASTSOUND      CLOUDY    63  57  82 S12G20    29.76S                  
PORT ANGELES   CLOUDY    58  57  97 W5        29.78S                  
EDIZ HOOK      CLOUDY    56  54  92 NW6       29.76S                  
PORT TOWNSEND  FAIR      61  57  88 S12G22    29.76S                  
NAS WHIDBEY    CLOUDY    66  54  65 SE24G36   29.80F                  
ARLINGTON      CLOUDY    64  55  72 SE16      29.83F                  
BURLINGTON       N/A     66  55  68 SE9G15    29.80F                  
$$
 
WAZ020-022-039-040-504-511-512-150400-
SOUTHWEST INTERIOR
  
CITY           SKY/WX    TMP DP  RH WIND       PRES   REMARKS
SHELTON        CLOUDY    61  57  87 S3        29.83F                  
OLYMPIA        CLOUDY    63  53  70 S9        29.85F                  
CHEHALIS       CLOUDY    64  57  77 S6        29.87F                  
KELSO          CLOUDY    65  56  72 NW3       29.88F                  
VANCOUVER      CLOUDY    70  52  52 W8        29.86S                  
SCAPPOOSE, OR  MOCLDY    67  52  58 SW5       29.85F                  
PORTLAND, OR   MOCLDY    72  52  49 W13       29.87S                  
$$
 
WAZ021-516-517-150400-
WASHINGTON COAST
  
CITY           SKY/WX    TMP DP  RH WIND       PRES   REMARKS
FORKS          CLOUDY    60  59  96 SW5       29.78S                  
HOQUIAM        CLOUDY    62  62 100 S14       29.84F FOG              
ASTORIA, OR    CLOUDY    64  57  78 S10       29.86F                  
$$
 
WAZ019-023-024-040-567>569-150400-
CASCADE MOUNTAINS AND COLUMBIA GORGE
  
CITY           SKY/WX    TMP DP  RH WIND       PRES   REMARKS
STAMPEDE PASS  LGT RAIN  49  47  93 CALM      29.94S FOG              
TROUTDALE, OR  PTCLDY    69  56  62 E3        29.86F                  
HOOD RIVER, OR MOCLDY    68  50  52 NW7       29.86S                  
THE DALLES, OR MOCLDY    72  53  51 W17G26    29.81F                  
$$

WAZ026-027-041>044-520-521-150400-
EAST SLOPES
  
CITY           SKY/WX    TMP DP  RH WIND       PRES   REMARKS
OMAK           CLOUDY    65  46  50 CALM      29.81S                  
WENATCHEE      CLOUDY    65  42  43 N6        29.83F                  
ELLENSBURG     CLOUDY    63  48  58 MISG      29.85F                  
YAKIMA         CLOUDY    71  51  49 CALM      29.82S                  
SUNNYSIDE ARPT MOCLDY    63  60  90 N5        29.81F                  
YAKIMA TC      CLOUDY    68  46  45 E8        29.82S                  
$$

WAZ028-034-035-150400-
COLUMBIA BASIN
  
CITY           SKY/WX    TMP DP  RH WIND       PRES   REMARKS
EPHRATA        CLOUDY    67  44  43 CALM      29.82F                  
MOSES LAKE     CLOUDY    70  49  47 S3        29.83F                  
PASCO          MOCLDY    68  59  73 N5        29.80S                  
RICHLAND ARPT  MOCLDY    71  55  56 CALM      29.80                   
HERMISTON, OR  MOCLDY    74  45  35 SW8       29.81S                  
$$

WAZ036>038-150400-
NORTHEAST WASHINGTON
  
CITY           SKY/WX    TMP DP  RH WIND       PRES   REMARKS
SPOKANE GEIGER MOCLDY    65  44  46 SW7       29.87S                  
SPOKANE FELTS  PTCLDY    62  45  53 CALM      29.86S                  
FAIRCHILD AFB  NOT AVBL                                               
COEURDALENE,ID PTCLDY    63  45  51 N5        29.88S                  
DEER PARK      MOCLDY    61  48  62 NE8       29.88S                  
$$

WAZ029>033-150400-
SOUTHEAST WASHINGTON
  
CITY           SKY/WX    TMP DP  RH WIND       PRES   REMARKS
PULLMAN        MOCLDY    68  43  40 W7        29.91S                  
LEWISTON, ID   PTCLDY    74  45  35 W3        29.83S                  
WALLA WALLA    MOCLDY    69  51  52 E6        29.84S                  
PENDLETON, OR  MOCLDY    70  49  47 CALM      29.84F                  
$$